sat.trackr.live / text

‹ back to catalog

INTELSAT 15 (IS-15)

NORAD 36106 · 2009-067A

PAYLOAD ACTIVE UNKNOWN

§ Identity

Operator
Country
ITSO
Launch date
2009-11-30
Launch site
TYMSC
Launch vehicle
Mass (kg)
RCS (m²)
12.59

Purposes: comms

External: N2YO · Heavens-Above · Gunter

§ Orbital elements

Epoch: 2026-09-20T03:38:10.801824Z

Period
1,436.08 min
Inclination
0.0166°
Eccentricity
0.0002348
Mean motion
1.00272634 rev/d
Perigee alt
35,776.5 km
Apogee alt
35,796.3 km
Semi-major
42,164.5 km
B*
0.0000e+0
RAAN
97.0011°
Arg perigee
85.2520°
Mean anomaly
316.5009°
Rev number
4,218

§ Raw data

INTELSAT 15 (IS-15)1 36106U 09067A   26263.15151391 -.00000190  00000+0  00000+0 0  99922 36106   0.0166  97.0011 0002348  85.2520 316.5009  1.00272634 42182

JSON: /api/v1/satellites/36106 · /tle

For live sub-satellite position, see the globe view (requires WebGL).

§ Visibility from observer

Set your observer location to see the next 7 days of passes ≥ 10°. The values pass through the URL so the page stays shareable.

No JS? Fill the form by hand. The geolocation button needs JavaScript.